Location: Ferchesar
(52.6477°N, 12.4298°E)
Time: 12:12:22
(UTC+02:00)

Transit 4A - Pass Details

Date: 26 February 2021
Orbit: 869 x 975 km, 66.8° (Epoch: 15 April)

Event Time Altitude Azimuth Distance (km) Brightness Sun altitude
Rises 16:47:32 0° 304° (NW) 3,638 11.5 7.2°
Reaches altitude 10° 16:50:43 10° 319° (NW) 2,675 10.6 6.8°
Maximum altitude 16:55:34 23° 11° (N) 1,875 9.3 6.1°
Drops below altitude 10° 17:00:19 10° 62° (ENE) 2,613 9.6 5.5°
Sets 17:03:22 0° 77° (ENE) 3,534 10.2 5.0°
